This is the latest recevied weather packets stored in our database for station/object LU4EGV-13. If no packets are shown the sender has not sent any weather packets the latest 10 day(s).
| Time | Temp. | Humidity | Pressure | Rain* | Wind** | Luminosity | Snow |
|---|---|---|---|---|---|---|---|
| 1778021659 | 20.56° C | 84% | 1011.2 hPa | 0 mm | - | - | - |
| 1778021052 | 21.11° C | 83% | 1011.4 hPa | 0 mm | - | - | - |
| 1778020447 | 21.11° C | 82% | 1011.2 hPa | 0 mm | - | - | - |
| 1778019840 | 21.11° C | 82% | 1011.4 hPa | 0 mm | - | - | - |
| 1778019234 | 21.11° C | 82% | 1011.4 hPa | 0 mm | - | - | - |
| 1778018627 | 21.67° C | 81% | 1011.5 hPa | 0 mm | - | - | - |
| 1778018022 | 21.67° C | 81% | 1011.6 hPa | 0 mm | - | - | - |
| 1778017415 | 21.67° C | 81% | 1011.2 hPa | 0 mm | - | - | - |
| 1778016810 | 21.67° C | 80% | 1011.1 hPa | 0 mm | - | - | - |
| 1778016203 | 21.67° C | 79% | 1011 hPa | 0 mm | - | - | - |
| 1778015599 | 21.67° C | 78% | 1011 hPa | 0 mm | - | - | - |
| 1778014990 | 21.67° C | 77% | 1010.8 hPa | 0 mm | - | - | - |
| 1778014395 | 22.22° C | 74% | 1011 hPa | 0 mm | - | - | - |
| 1778013778 | 22.78° C | 73% | 1011.1 hPa | 0 mm | - | - | - |
| 1778013172 | 22.78° C | 71% | 1011 hPa | 0 mm | - | - | - |
| 1778012566 | 22.78° C | 69% | 1011 hPa | 0 mm | - | - | - |
| 1778011965 | 23.89° C | 69% | 1010.7 hPa | 0 mm | - | - | - |
| 1778011353 | 25° C | 68% | 1010.7 hPa | 0 mm | - | - | - |
| 1778010748 | 25.56° C | 66% | 1010.8 hPa | 0 mm | - | - | - |
| 1778010142 | 25° C | 67% | 1011 hPa | 0 mm | - | - | - |
| 1778009535 | 25° C | 67% | 1011.2 hPa | 0 mm | - | - | - |
| 1778008929 | 25° C | 67% | 1011 hPa | 0 mm | - | - | - |
| 1778008322 | 25° C | 65% | 1011.3 hPa | 0 mm | - | - | - |
| 1778007717 | 26.11° C | 63% | 1011.3 hPa | 0 mm | - | - | - |
| 1778007110 | 25.56° C | 64% | 1011.3 hPa | 0 mm | - | - | - |
* Rain latest hour (hover to see other rain measurements)
** Current wind speed in m/s (hover to see current wind gust speed)